Regional Weather Roundup
Issued by NWS

Home | Current Version | Previous Version | Text Only | Print | Product List | Glossary Off
Versions: 1 2 3 4 5 6 7 8 9 10 11 12 13 14 15 16 17 18 19 20 21 22 23 24 25 26 27 28 29 30 31 32 33 34 35 36 37 38 39 40 41 42 43 44 45 46 47 48 49 50

470
ASUS44 KMEG 110700
RWRTN
TENNESSEE HOURLY STATE WEATHER ROUNDUP
NATIONAL WEATHER SERVICE MEMPHIS TN
100 AM CST THU FEB 11 2016

TNZ002-004-019-021-049-052-054-088>092-110800-
WEST TENNESSEE

CITY           SKY/WX    TMP DP  RH WIND       PRES   REMARKS
MEMPHIS INTL   CLEAR     34  16  47 E5        30.06F WCI  30
NWS MEMPHIS      N/A     31 N/A N/A MISG        N/A
JACKSON        CLEAR     26  11  52 E6        30.11F WCI  19
DYERSBURG      CLEAR     27  12  54 E7        30.13S WCI  19
UNION CITY     CLEAR     23  16  74 E3        30.12S
PARIS          CLEAR     21  16  79 E6        30.12F WCI  14
LEXINGTON      CLEAR     23  12  63 E3        30.12F
$$

TNZ008-025-027-028-033-062-065-066-110800-
NORTH MIDDLE TENNESSEE

CITY           SKY/WX    TMP DP  RH WIND       PRES   REMARKS
NASHVILLE      CLOUDY    27  20  75 SE3       30.18S
CLARKSVILLE    CLOUDY    25  21  85 E6        30.16F WCI  18
COOKEVILLE     CLOUDY    25  19  80 CALM      30.14F
CROSSVILLE     CLOUDY    21  17  84 W6        30.10S WCI  13
$$

TNZ061-075-076-078-094-096-097-110800-
SOUTH MIDDLE TENNESSEE

CITY           SKY/WX    TMP DP  RH WIND       PRES   REMARKS
TULLAHOMA      CLOUDY    25  21  86 CALM      30.14F
WINCHESTER     CLOUDY    27  19  74 CALM      30.15F
MCMINNVILLE    CLOUDY    25  19  80 CALM      30.15S
COLUMBIA       CLOUDY    27  25  93 CALM      30.13F
SHELBYVILLE    CLOUDY    27  21  80 E3        30.16F
$$

TNZ017-018-042-046-047-110800-
NORTHEAST TENNESSEE

CITY           SKY/WX    TMP DP  RH WIND       PRES   REMARKS
TRI CITIES     MOCLDY    18   7  62 W3        30.11S
$$

TNZ012-013-036-069-073-074-110800-
CENTRAL EAST TENNESSEE

CITY           SKY/WX    TMP DP  RH WIND       PRES   REMARKS
KNOXVILLE      CLOUDY    25  17  72 SW6       30.16S WCI  18
OAK RIDGE      CLOUDY    27  16  63 W3        30.17F
GATLINBURG     CLOUDY    25  12  58 SW5       30.14F WCI  19
$$

TNZ083-085-099-110800-
SOUTHEAST TENNESSEE

CITY           SKY/WX    TMP DP  RH WIND       PRES   REMARKS
CHATTANOOGA    CLOUDY    30  17  58 CALM      30.17F
$$

SKY/WX REPORTED AS FAIR MEANS FEW OR NO CLOUDS BELOW
12 THOUSAND FEET.





USA.gov is the U.S. government's official web portal to all federal, state and local government web resources and services.